Time,TemperatureF,DewpointF,PressureIn,WindDirection,WindDirectionDegrees,WindSpeedMPH,WindSpeedGustMPH,Humidity,HourlyPrecipIn,Conditions,Clouds,dailyrainin,SolarRadiationWatts/m^2,SoftwareType,DateUTC
2013-05-27 00:09:00,52.0,39.0,29.80,East,85,1.0,3.0,62,0.00,,,0.00,0,weatherlink.com 1.10,2013-05-27 08:09:00,
2013-05-27 00:24:00,51.2,38.0,29.80,East,86,1.0,3.0,61,0.00,,,0.00,0,weatherlink.com 1.10,2013-05-27 08:24:00,
2013-05-27 00:39:00,50.4,38.0,29.80,ENE,61,0.0,2.0,63,0.00,,,0.00,0,weatherlink.com 1.10,2013-05-27 08:39:00,
2013-05-27 00:54:00,49.5,38.0,29.80,North,5,1.0,2.0,66,0.00,,,0.00,0,weatherlink.com 1.10,2013-05-27 08:54:00,
2013-05-27 01:09:00,49.1,38.0,29.80,North,5,1.0,2.0,65,0.00,,,0.00,0,weatherlink.com 1.10,2013-05-27 09:09:00,
2013-05-27 01:24:00,48.3,37.0,29.81,North,5,2.0,2.0,65,0.00,,,0.00,0,weatherlink.com 1.10,2013-05-27 09:24:00,
2013-05-27 01:40:00,47.6,37.0,29.81,NW,326,3.0,4.0,68,0.00,,,0.00,0,weatherlink.com 1.10,2013-05-27 09:40:00,
2013-05-27 01:55:00,46.7,37.0,29.82,NW,326,0.0,1.0,70,0.00,,,0.00,0,weatherlink.com 1.10,2013-05-27 09:55:00,
2013-05-27 02:10:00,45.8,37.0,29.82,NW,318,2.0,4.0,71,0.00,,,0.00,0,weatherlink.com 1.10,2013-05-27 10:10:00,
2013-05-27 02:25:00,44.9,35.0,29.82,NW,318,0.0,2.0,69,0.00,,,0.00,0,weatherlink.com 1.10,2013-05-27 10:25:00,
2013-05-27 02:40:00,44.2,36.0,29.82,NW,318,0.0,2.0,73,0.00,,,0.00,0,weatherlink.com 1.10,2013-05-27 10:40:00,
2013-05-27 02:55:00,43.4,36.0,29.82,East,92,0.0,2.0,75,0.00,,,0.00,0,weatherlink.com 1.10,2013-05-27 10:55:00,
2013-05-27 03:10:00,42.8,36.0,29.82,East,92,0.0,1.0,77,0.00,,,0.00,0,weatherlink.com 1.10,2013-05-27 11:10:00,
2013-05-27 03:25:00,42.0,36.0,29.83,East,91,1.0,2.0,78,0.00,,,0.00,0,weatherlink.com 1.10,2013-05-27 11:25:00,
2013-05-27 03:40:00,41.6,35.0,29.83,NW,323,0.0,3.0,76,0.00,,,0.00,0,weatherlink.com 1.10,2013-05-27 11:40:00,
2013-05-27 03:55:00,41.0,35.0,29.83,NW,323,0.0,0.0,78,0.00,,,0.00,0,weatherlink.com 1.10,2013-05-27 11:55:00,
2013-05-27 04:10:00,40.5,34.0,29.83,ENE,72,1.0,1.0,79,0.00,,,0.00,0,weatherlink.com 1.10,2013-05-27 12:10:00,
2013-05-27 04:25:00,40.0,34.0,29.83,ENE,78,0.0,2.0,80,0.00,,,0.00,5,weatherlink.com 1.10,2013-05-27 12:25:00,
2013-05-27 04:40:00,39.6,34.0,29.83,ENE,78,0.0,0.0,80,0.00,,,0.00,9,weatherlink.com 1.10,2013-05-27 12:40:00,
2013-05-27 04:55:00,38.7,34.0,29.83,ENE,78,0.0,0.0,82,0.00,,,0.00,16,weatherlink.com 1.10,2013-05-27 12:55:00,
2013-05-27 05:10:00,37.8,33.0,29.83,East,85,1.0,2.0,83,0.00,,,0.00,21,weatherlink.com 1.10,2013-05-27 13:10:00,
2013-05-27 05:25:00,37.7,33.0,29.83,East,92,0.0,2.0,83,0.00,,,0.00,26,weatherlink.com 1.10,2013-05-27 13:25:00,
2013-05-27 05:40:00,38.1,33.0,29.83,North,355,2.0,3.0,83,0.00,,,0.00,32,weatherlink.com 1.10,2013-05-27 13:40:00,
2013-05-27 05:55:00,38.1,33.0,29.83,NNW,340,2.0,4.0,82,0.00,,,0.00,51,weatherlink.com 1.10,2013-05-27 13:55:00,
2013-05-27 06:10:00,38.4,33.0,29.83,ENE,70,0.0,2.0,82,0.00,,,0.00,47,weatherlink.com 1.10,2013-05-27 14:10:00,
2013-05-27 06:25:00,38.6,34.0,29.83,ENE,71,0.0,2.0,82,0.00,,,0.00,40,weatherlink.com 1.10,2013-05-27 14:25:00,
2013-05-27 06:40:00,38.1,33.0,29.83,NW,315,0.0,3.0,82,0.00,,,0.00,167,weatherlink.com 1.10,2013-05-27 14:40:00,
2013-05-27 06:55:00,39.9,34.0,29.83,NW,317,0.0,2.0,79,0.00,,,0.00,202,weatherlink.com 1.10,2013-05-27 14:55:00,
2013-05-27 07:11:00,40.3,35.0,29.83,NW,304,3.0,4.0,80,0.00,,,0.00,232,weatherlink.com 1.10,2013-05-27 15:11:00,
2013-05-27 07:26:00,42.1,35.0,29.83,ESE,123,3.0,3.0,76,0.00,,,0.00,265,weatherlink.com 1.10,2013-05-27 15:26:00,
2013-05-27 07:41:00,43.3,35.0,29.83,WSW,255,0.0,3.0,73,0.00,,,0.00,295,weatherlink.com 1.10,2013-05-27 15:41:00,
2013-05-27 07:56:00,44.4,36.0,29.82,West,259,2.0,2.0,72,0.00,,,0.00,329,weatherlink.com 1.10,2013-05-27 15:56:00,
2013-05-27 08:11:00,46.7,37.0,29.82,West,259,1.0,2.0,68,0.00,,,0.00,360,weatherlink.com 1.10,2013-05-27 16:11:00,
2013-05-27 08:26:00,47.9,37.0,29.82,South,190,0.0,4.0,65,0.00,,,0.00,394,weatherlink.com 1.10,2013-05-27 16:26:00,
2013-05-27 08:41:00,49.9,37.0,29.82,East,96,0.0,3.0,62,0.00,,,0.00,425,weatherlink.com 1.10,2013-05-27 16:41:00,
2013-05-27 08:56:00,52.0,38.0,29.81,SSW,212,1.0,3.0,59,0.00,,,0.00,459,weatherlink.com 1.10,2013-05-27 16:56:00,
2013-05-27 09:11:00,53.1,38.0,29.81,South,173,0.0,3.0,57,0.00,,,0.00,490,weatherlink.com 1.10,2013-05-27 17:11:00,
2013-05-27 09:26:00,55.2,39.0,29.81,West,263,0.0,3.0,55,0.00,,,0.00,522,weatherlink.com 1.10,2013-05-27 17:26:00,
2013-05-27 09:41:00,56.2,39.0,29.80,NNW,336,0.0,4.0,52,0.00,,,0.00,550,weatherlink.com 1.10,2013-05-27 17:41:00,
2013-05-27 09:56:00,57.2,39.0,29.80,WSW,247,1.0,4.0,51,0.00,,,0.00,578,weatherlink.com 1.10,2013-05-27 17:56:00,
2013-05-27 10:11:00,57.5,39.0,29.80,West,275,3.0,5.0,50,0.00,,,0.00,605,weatherlink.com 1.10,2013-05-27 18:11:00,
2013-05-27 10:26:00,59.1,38.0,29.79,NW,305,2.0,5.0,46,0.00,,,0.00,628,weatherlink.com 1.10,2013-05-27 18:26:00,
2013-05-27 10:41:00,59.9,39.0,29.79,WSW,246,1.0,4.0,47,0.00,,,0.00,276,weatherlink.com 1.10,2013-05-27 18:41:00,
2013-05-27 10:57:00,60.7,40.0,29.78,West,275,0.0,3.0,46,0.00,,,0.00,62,weatherlink.com 1.10,2013-05-27 18:57:00,
2013-05-27 11:12:00,63.1,40.0,29.78,SSE,160,5.0,6.0,43,0.00,,,0.00,209,weatherlink.com 1.10,2013-05-27 19:12:00,
2013-05-27 11:27:00,64.6,39.0,29.77,ESE,117,4.0,6.0,39,0.00,,,0.00,719,weatherlink.com 1.10,2013-05-27 19:27:00,
2013-05-27 11:42:00,64.6,39.0,29.77,ESE,114,3.0,5.0,39,0.00,,,0.00,735,weatherlink.com 1.10,2013-05-27 19:42:00,
2013-05-27 11:57:00,65.9,41.0,29.77,SE,142,4.0,6.0,40,0.00,,,0.00,751,weatherlink.com 1.10,2013-05-27 19:57:00,
2013-05-27 12:12:00,65.5,40.0,29.77,SE,130,4.0,7.0,39,0.00,,,0.00,766,weatherlink.com 1.10,2013-05-27 20:12:00,
2013-05-27 12:27:00,66.9,40.0,29.76,SE,129,3.0,6.0,37,0.00,,,0.00,782,weatherlink.com 1.10,2013-05-27 20:27:00,
2013-05-27 12:42:00,66.8,39.0,29.76,ESE,106,5.0,7.0,36,0.00,,,0.00,793,weatherlink.com 1.10,2013-05-27 20:42:00,
2013-05-27 12:57:00,68.0,39.0,29.75,SE,139,3.0,8.0,35,0.00,,,0.00,802,weatherlink.com 1.10,2013-05-27 20:57:00,
2013-05-27 13:12:00,68.4,40.0,29.75,SE,132,6.0,7.0,35,0.00,,,0.00,805,weatherlink.com 1.10,2013-05-27 21:12:00,
2013-05-27 13:27:00,70.9,40.0,29.74,ESE,118,3.0,7.0,32,0.00,,,0.00,805,weatherlink.com 1.10,2013-05-27 21:27:00,
2013-05-27 13:42:00,71.4,39.0,29.74,SE,126,4.0,7.0,31,0.00,,,0.00,798,weatherlink.com 1.10,2013-05-27 21:42:00,
2013-05-27 13:57:00,70.5,38.0,29.73,SE,124,2.0,6.0,31,0.00,,,0.00,798,weatherlink.com 1.10,2013-05-27 21:57:00,
2013-05-27 14:12:00,71.6,39.0,29.73,ESE,108,3.0,7.0,30,0.00,,,0.00,791,weatherlink.com 1.10,2013-05-27 22:12:00,
2013-05-27 14:27:00,72.0,36.0,29.73,East,98,2.0,5.0,27,0.00,,,0.00,782,weatherlink.com 1.10,2013-05-27 22:27:00,
2013-05-27 14:42:00,73.1,35.0,29.72,SE,138,5.0,8.0,25,0.00,,,0.00,779,weatherlink.com 1.10,2013-05-27 22:42:00,
2013-05-27 14:57:00,71.7,35.0,29.72,ESE,123,3.0,5.0,26,0.00,,,0.00,768,weatherlink.com 1.10,2013-05-27 22:57:00,
2013-05-27 15:12:00,73.0,35.0,29.72,ESE,115,3.0,6.0,25,0.00,,,0.00,754,weatherlink.com 1.10,2013-05-27 23:12:00,
2013-05-27 15:27:00,71.9,33.0,29.71,SE,126,0.0,5.0,24,0.00,,,0.00,745,weatherlink.com 1.10,2013-05-27 23:27:00,
2013-05-27 15:42:00,73.8,33.0,29.71,WNW,300,4.0,6.0,22,0.00,,,0.00,729,weatherlink.com 1.10,2013-05-27 23:42:00,
2013-05-27 15:58:00,74.5,34.0,29.71,NNW,337,5.0,5.0,23,0.00,,,0.00,724,weatherlink.com 1.10,2013-05-27 23:58:00,
2013-05-27 16:13:00,72.5,31.0,29.70,NNE,27,3.0,6.0,22,0.00,,,0.00,701,weatherlink.com 1.10,2013-05-28 00:13:00,
2013-05-27 16:28:00,73.7,31.0,29.70,SSE,155,5.0,6.0,21,0.00,,,0.00,156,weatherlink.com 1.10,2013-05-28 00:28:00,
2013-05-27 16:43:00,72.8,31.0,29.70,ESE,115,0.0,4.0,21,0.00,,,0.00,622,weatherlink.com 1.10,2013-05-28 00:43:00,
2013-05-27 16:58:00,72.8,31.0,29.69,ESE,120,3.0,3.0,21,0.00,,,0.00,601,weatherlink.com 1.10,2013-05-28 00:58:00,
2013-05-27 17:13:00,72.9,29.0,29.69,ESE,114,1.0,4.0,20,0.00,,,0.00,594,weatherlink.com 1.10,2013-05-28 01:13:00,
2013-05-27 17:28:00,73.4,31.0,29.68,ESE,109,1.0,5.0,21,0.00,,,0.00,550,weatherlink.com 1.10,2013-05-28 01:28:00,
2013-05-27 17:43:00,73.7,31.0,29.68,South,171,4.0,7.0,21,0.00,,,0.00,345,weatherlink.com 1.10,2013-05-28 01:43:00,
2013-05-27 17:58:00,73.2,28.0,29.68,East,98,2.0,3.0,19,0.00,,,0.00,237,weatherlink.com 1.10,2013-05-28 01:58:00,
2013-05-27 18:13:00,74.2,31.0,29.67,NE,55,2.0,4.0,20,0.00,,,0.00,188,weatherlink.com 1.10,2013-05-28 02:13:00,
2013-05-27 18:28:00,72.8,34.0,29.67,NE,44,2.0,11.0,24,0.00,,,0.00,91,weatherlink.com 1.10,2013-05-28 02:28:00,
2013-05-27 18:43:00,70.5,34.0,29.67,NE,49,3.0,7.0,26,0.00,,,0.00,58,weatherlink.com 1.10,2013-05-28 02:43:00,
2013-05-27 18:58:00,69.5,35.0,29.67,NNW,345,2.0,5.0,28,0.00,,,0.00,49,weatherlink.com 1.10,2013-05-28 02:58:00,
2013-05-27 19:13:00,68.3,36.0,29.67,North,9,4.0,10.0,30,0.00,,,0.00,51,weatherlink.com 1.10,2013-05-28 03:13:00,
2013-05-27 19:28:00,68.0,35.0,29.67,NW,309,0.0,8.0,30,0.00,,,0.00,69,weatherlink.com 1.10,2013-05-28 03:28:00,
2013-05-27 19:43:00,70.8,34.0,29.66,NE,46,0.0,7.0,26,0.00,,,0.00,297,weatherlink.com 1.10,2013-05-28 03:43:00,
2013-05-27 19:58:00,71.5,34.0,29.66,ENE,74,4.0,8.0,25,0.00,,,0.00,125,weatherlink.com 1.10,2013-05-28 03:58:00,
2013-05-27 20:13:00,71.1,33.0,29.66,East,79,6.0,11.0,25,0.00,,,0.00,218,weatherlink.com 1.10,2013-05-28 04:13:00,
2013-05-27 20:28:00,70.1,33.0,29.66,ENE,61,2.0,8.0,25,0.00,,,0.00,123,weatherlink.com 1.10,2013-05-28 04:28:00,
2013-05-27 20:44:00,69.2,32.0,29.66,NE,49,2.0,9.0,25,0.00,,,0.00,113,weatherlink.com 1.10,2013-05-28 04:44:00,
2013-05-27 20:58:00,68.9,32.0,29.66,NE,55,3.0,7.0,25,0.00,,,0.00,40,weatherlink.com 1.10,2013-05-28 04:58:00,
2013-05-27 21:13:00,68.1,32.0,29.66,ENE,59,1.0,8.0,26,0.00,,,0.00,28,weatherlink.com 1.10,2013-05-28 05:13:00,
2013-05-27 21:28:00,67.2,31.0,29.66,East,90,2.0,7.0,26,0.00,,,0.00,42,weatherlink.com 1.10,2013-05-28 05:28:00,
2013-05-27 21:43:00,66.7,31.0,29.66,East,93,2.0,7.0,26,0.00,,,0.00,21,weatherlink.com 1.10,2013-05-28 05:43:00,
2013-05-27 21:58:00,65.9,31.0,29.66,NE,53,3.0,6.0,27,0.00,,,0.00,18,weatherlink.com 1.10,2013-05-28 05:58:00,
2013-05-27 22:13:00,64.4,31.0,29.66,East,81,1.0,6.0,29,0.00,,,0.00,14,weatherlink.com 1.10,2013-05-28 06:13:00,
2013-05-27 22:28:00,63.4,32.0,29.66,East,84,1.0,5.0,31,0.00,,,0.00,11,weatherlink.com 1.10,2013-05-28 06:28:00,
2013-05-27 22:43:00,61.5,33.0,29.66,East,87,1.0,4.0,34,0.00,,,0.00,7,weatherlink.com 1.10,2013-05-28 06:43:00,
2013-05-27 22:58:00,61.1,32.0,29.66,NE,36,0.0,7.0,34,0.00,,,0.00,0,weatherlink.com 1.10,2013-05-28 06:58:00,
2013-05-27 23:13:00,59.6,32.0,29.67,ENE,76,1.0,3.0,36,0.00,,,0.00,0,weatherlink.com 1.10,2013-05-28 07:13:00,
2013-05-27 23:28:00,57.8,33.0,29.67,NW,325,2.0,6.0,39,0.00,,,0.00,0,weatherlink.com 1.10,2013-05-28 07:28:00,
2013-05-27 23:43:00,56.5,32.0,29.67,NW,319,2.0,4.0,40,0.00,,,0.00,0,weatherlink.com 1.10,2013-05-28 07:43:00,
2013-05-27 23:58:00,54.7,32.0,29.67,NW,309,4.0,5.0,42,0.00,,,0.00,0,weatherlink.com 1.10,2013-05-28 07:58:00,